星链-33820 (STARLINK-33820)

导读

STARLINK-33820是美国星链计划中的一颗卫星,于2025年4月14日发射升空,隶属于SpaceX公司的星链星座项目。星链计划旨在构建全球卫星互联网星座,为全球各地提供高速互联网接入服务,该卫星承担着扩展星座网络覆盖范围、提升网络服务容量与稳定性的任务,推动全球卫星互联网组网进程。

基本信息
目录编号:
63584
目录名称:
STARLINK-33820
国际标识:
2025-076R
轨道中心:
EARTH
卫星名称:
星链-33820
卫星全名:
星链-33820 (STARLINK-33820)
卫星状态:
在轨 (已飞行426 天)
发射日期:
2025-04-14 UTC
国别 :
美国 (US)
星等 :
--
轨道信息
数据来源 国际轨道数据
星历时间: 2026-06-13T16:00:02+0800
20小时前
查看轨道信息
半长轴: 6861.261km
偏心率: 0.0001964
轨道倾角: 43.001°
近地点辐角 274.941°
升交点赤经 141.101°
平近点角 62.348°
近地点: 481.776km
远地点: 484.472km
周期: 94.268分钟
每日圈数: 15.27555
详细信息
固有亮度:
5
最大亮度:
2.5
卫星平台:
Starlink V1.0
覆盖范围:
全球
运营商:
太空探索技术公司
运营商所在国:
美国
制造商(研发单位):
太空探索技术公司
制造商所在国:
美国
使用方式:
暂无
卫星简介
Starlink 计划是 SpaceX 推出的全球卫星互联网项目,通过发射低轨道卫星,为全球尤其是偏远地区提供高速、低延迟的互联网服务。自 2019 年起,Starlink 已部署数千颗卫星,旨在缩小全球数字鸿沟,推动互联网普及。该项目还为军事、航空等行业提供通信支持,带来广泛经济效益。
2D轨道图
3D轨道图
轨道高度分析图
轨道倾角分析图
轨道综合分析图
查看轨道综合分析图